Location: Castillon
(43.0896°N, 0.2156°E)
Time: 13:41:32
(UTC+00:00)

Resurs 1-3 - Pass Details

Date: 16 June 2021
Orbit: 629 x 632 km, 97.9° (Epoch: 01 August)

Event Time Altitude Azimuth Distance (km) Brightness Sun altitude
Exits shadow 20:25:49 - 175° (S) 2,890 6.6 -7.3°
Reaches altitude 10° 20:27:59 10° 179° (S) 2,007 5.8 -7.6°
Maximum altitude 20:32:17 59° 259° (W) 733 4.2 -8.2°
Drops below altitude 10° 20:36:39 10° 340° (NNW) 2,024 7.4 -8.8°
Sets 20:38:54 0° 344° (NNW) 2,937 8.2 -9.1°
